Holland, MI

12:05 AM EST on February 07, 2016 (GMT -0500)
Tulip City

Weather History for KBIV - May, 2014

Change the Weather History Date:

Friday, May 16, 2014

  Actual Average Record
Temperature  
Mean Temperature 41 °F 59 °F  
Max Temperature 47 °F 69 °F 90 °F (1962)
Min Temperature 34 °F 49 °F 29 °F (1984)
Degree Days  
Heating Degree Days 24 7  
Month to date heating degree days 173 149  
Since 1 July heating degree days 6970 6028  
Cooling Degree Days 0 1  
Month to date cooling degree days 12 10  
Year to date cooling degree days 12 14  
Moisture  
Dew Point 33 °F    
Average Humidity 77    
Maximum Humidity 89    
Minimum Humidity 65    
Precipitation  
Precipitation 0.00 in 0.09 in 1.34 in (2001)
Month to date precipitation 1.78 1.74  
Year to date precipitation 9.28 11.15  
Sea Level Pressure  
Sea Level Pressure 30.06 in    
Wind  
Wind Speed 6 mph (West)    
Max Wind Speed 14 mph    
Max Gust Speed 22 mph    
Visibility 10 miles    
Events      
T = Trace of Precipitation, MM = Missing Value Source: NWS Daily Summary

Daily Weather History Graph

Daily Weather History Graph

Search for Another Location

Airport or City:

Trip Planner

Search our weather history database for the weather conditions in past years. The results will help you decide how hot, cold, wet, or windy it might be!

Date:

Astronomy

May. 16, 2014 Rise Set
Actual Time 6:20 AM EDT 9:01 PM EDT
Civil Twilight 5:48 AM EDT 9:33 PM EDT
Nautical Twilight 5:07 AM EDT 10:15 PM EDT
Astronomical Twilight 4:21 AM EDT 11:01 PM EDT
Moon 11:07 PM EDT (5/16) 8:02 AM EDT (5/16)
Length of Visible Light 15h 45m
Length of Day
14h 40m
Waning Gibbous, 95% of the Moon is Illuminated
May 16
Waning Gibbous
May 21
Last Quarter
May 28
New
Jun 5
First Quarter
Jun 13
Full

Hourly Weather History & Observations

Time (EDT) Temp. Windchill Dew Point Humidity Pressure Visibility Wind Dir Wind Speed Gust Speed Precip Events Conditions
12:53 AM 37.0 °F - 32.0 °F 82% 30.07 in 10.0 mi Calm Calm - N/A   Clear
2:53 AM 36.0 °F - 32.0 °F 86% 30.04 in 10.0 mi Calm Calm - N/A   Clear
4:53 AM 35.1 °F 32.2 °F 30.9 °F 85% 30.05 in 10.0 mi NNW 3.5 mph - N/A   Clear
5:53 AM 35.1 °F - 30.9 °F 85% 30.05 in 10.0 mi Calm Calm - N/A   Clear
6:53 AM 36.0 °F - 32.0 °F 86% 30.05 in 10.0 mi Calm Calm - N/A   Clear
7:53 AM 37.9 °F 35.5 °F 32.0 °F 79% 30.07 in 10.0 mi Variable 3.5 mph - N/A   Scattered Clouds
8:53 AM 39.9 °F 36.7 °F 33.1 °F 77% 30.06 in 10.0 mi Variable 4.6 mph - N/A   Mostly Cloudy
9:53 AM 43.0 °F 39.5 °F 33.1 °F 68% 30.06 in 10.0 mi Variable 5.8 mph - N/A   Partly Cloudy
10:38 AM 44.1 °F 42.5 °F 33.1 °F 65% 30.04 in 10.0 mi Variable 3.5 mph - N/A   Mostly Cloudy
10:53 AM 44.1 °F 42.5 °F 33.1 °F 65% 30.06 in 10.0 mi Variable 3.5 mph - N/A   Mostly Cloudy
11:07 AM 45.0 °F 42.6 °F 33.1 °F 63% 30.04 in 10.0 mi Variable 4.6 mph - N/A   Scattered Clouds
11:16 AM 45.0 °F - 34.0 °F 65% 30.04 in 10.0 mi North - - N/A   Mostly Cloudy
11:53 AM 45.0 °F 39.7 °F 35.1 °F 68% 30.06 in 10.0 mi West 10.4 mph - N/A   Mostly Cloudy
12:00 PM 45.0 °F 39.7 °F 35.1 °F 68% 30.04 in 10.0 mi West 10.4 mph - N/A   Partly Cloudy
12:53 PM 46.0 °F 41.0 °F 35.1 °F 66% 30.06 in 10.0 mi West 10.4 mph - N/A   Clear
1:53 PM 45.0 °F 38.9 °F 35.1 °F 68% 30.06 in 10.0 mi West 12.7 mph - N/A   Clear
2:53 PM 45.0 °F 40.1 °F 35.1 °F 68% 30.07 in 10.0 mi West 9.2 mph - N/A   Scattered Clouds
4:53 PM 44.1 °F 38.6 °F 35.1 °F 71% 30.07 in 10.0 mi NW 10.4 mph - N/A   Overcast
5:53 PM 45.0 °F 40.1 °F 34.0 °F 65% 30.07 in 10.0 mi West 9.2 mph - N/A   Overcast
6:53 PM 43.0 °F 38.2 °F 33.1 °F 68% 30.07 in 10.0 mi West 8.1 mph - N/A   Overcast
7:53 PM 44.1 °F 42.5 °F 33.1 °F 65% 30.06 in 10.0 mi Variable 3.5 mph - N/A   Mostly Cloudy
8:53 PM 42.1 °F 40.2 °F 33.1 °F 70% 30.06 in 10.0 mi West 3.5 mph - N/A   Clear
9:53 PM 39.0 °F 34.8 °F 34.0 °F 82% 30.09 in 10.0 mi West 5.8 mph - N/A   Scattered Clouds
10:53 PM 39.0 °F 35.7 °F 33.1 °F 79% 30.09 in 10.0 mi West 4.6 mph - N/A   Scattered Clouds
11:53 PM 39.0 °F 35.7 °F 34.0 °F 82% 30.10 in 10.0 mi West 4.6 mph - N/A   Overcast